AAR323 RKSI-ZUTF

Flight info

Callsign AAR323
Flight time N/A
Altitude 32000
Route DCT NOPIK Y697 AGAVO/K0750S0660 A591 IKEKA W4 FZ/K0859S0980 W4 LIMGI W152 BUBDU W276 ANRUG W279 ONEBA G212 BUPMI BUPMI7T
Aircraft A321/M-SDE3FGHIRWY/LB1

Departure

Time 2026-05-06 10:15
Airport Incheon International Airport (RKSI)

Arrival

Time N/A
Airport Chengdu Tianfu International Airport (ZUTF)
Time Latitude Longitude Altitude Speed Heading
2026-05-06 09:28 37.46151 126.43407 33 ft 0 kts 349°
2026-05-06 10:06 37.46148 126.43408 31 ft 1 kts 349°
2026-05-06 10:06 37.46131 126.43412 32 ft 3 kts 347°
2026-05-06 10:06 37.46111 126.43418 31 ft 3 kts 343°
2026-05-06 10:06 37.46092 126.43426 31 ft 3 kts 334°
2026-05-06 10:07 37.46076 126.43438 33 ft 3 kts 309°
2026-05-06 10:07 37.46068 126.43452 33 ft 2 kts 253°
2026-05-06 10:07 37.46069 126.43458 33 ft 0 kts 234°
2026-05-06 10:09 37.46066 126.43452 33 ft 4 kts 234°
2026-05-06 10:09 37.46030 126.43388 33 ft 11 kts 234°
2026-05-06 10:10 37.45983 126.43305 33 ft 12 kts 234°
2026-05-06 10:10 37.45935 126.43214 33 ft 12 kts 250°
2026-05-06 10:10 37.45980 126.43135 31 ft 12 kts 325°
2026-05-06 10:10 37.46079 126.43046 31 ft 25 kts 325°
2026-05-06 10:11 37.46226 126.42915 32 ft 26 kts 324°
2026-05-06 10:11 37.46373 126.42784 33 ft 26 kts 325°
2026-05-06 10:11 37.46521 126.42653 33 ft 26 kts 324°
2026-05-06 10:11 37.46667 126.42522 33 ft 26 kts 324°
2026-05-06 10:12 37.46814 126.42393 31 ft 26 kts 325°
2026-05-06 10:12 37.46955 126.42266 33 ft 24 kts 325°
2026-05-06 10:12 37.47087 126.42148 33 ft 23 kts 324°
2026-05-06 10:12 37.47214 126.42036 31 ft 21 kts 326°
2026-05-06 10:13 37.47335 126.41929 32 ft 21 kts 324°
2026-05-06 10:13 37.47399 126.41812 33 ft 16 kts 249°
2026-05-06 10:13 37.47362 126.41735 33 ft 16 kts 234°
2026-05-06 10:13 37.47276 126.41597 33 ft 13 kts 206°
2026-05-06 10:14 37.47223 126.41612 33 ft 12 kts 150°
2026-05-06 10:14 37.47142 126.41681 32 ft 20 kts 144°
2026-05-06 10:14 37.46855 126.41937 33 ft 84 kts 144°
2026-05-06 10:14 37.46205 126.42515 33 ft 141 kts 145°
2026-05-06 10:15 37.45279 126.43341 64 ft 180 kts 146°
2026-05-06 10:15 37.44244 126.44275 595 ft 185 kts 148°
2026-05-06 10:15 37.43142 126.45118 1227 ft 186 kts 155°
2026-05-06 10:15 37.42020 126.45930 1844 ft 187 kts 157°
2026-05-06 10:16 37.40860 126.46775 2125 ft 200 kts 156°
2026-05-06 10:16 37.39606 126.47694 2290 ft 220 kts 155°
2026-05-06 10:16 37.38182 126.48652 2405 ft 243 kts 166°
2026-05-06 10:16 37.36520 126.49227 2941 ft 251 kts 169°
2026-05-06 10:17 37.34811 126.49774 3632 ft 255 kts 169°
2026-05-06 10:17 37.33073 126.50334 4325 ft 260 kts 169°
2026-05-06 10:17 37.31313 126.50911 5019 ft 264 kts 168°
2026-05-06 10:17 37.29517 126.51433 5678 ft 266 kts 178°
2026-05-06 10:18 37.27700 126.51161 6316 ft 265 kts 203°
2026-05-06 10:18 37.26151 126.49926 6931 ft 266 kts 224°
2026-05-06 10:18 37.24800 126.48322 7592 ft 269 kts 225°
2026-05-06 10:18 37.23432 126.46702 8259 ft 272 kts 225°
2026-05-06 10:19 37.22050 126.45069 8917 ft 275 kts 225°
2026-05-06 10:19 37.20647 126.43416 9585 ft 278 kts 225°
2026-05-06 10:19 37.19228 126.41748 10198 ft 282 kts 225°
2026-05-06 10:19 37.17737 126.39997 10353 ft 304 kts 225°
2026-05-06 10:20 37.16138 126.38121 10474 ft 325 kts 225°
2026-05-06 10:20 37.14440 126.36129 10601 ft 344 kts 225°
2026-05-06 10:20 37.12764 126.33935 10989 ft 351 kts 233°
2026-05-06 10:20 37.11476 126.31327 11533 ft 354 kts 245°
2026-05-06 10:21 37.10665 126.28411 12125 ft 357 kts 257°
2026-05-06 10:21 37.10386 126.25315 12719 ft 360 kts 269°
2026-05-06 10:21 37.10370 126.22161 13317 ft 363 kts 269°
2026-05-06 10:21 37.10346 126.18984 13894 ft 367 kts 268°
2026-05-06 10:22 37.10316 126.15777 14423 ft 370 kts 268°
2026-05-06 10:22 37.10293 126.12549 14963 ft 372 kts 271°
2026-05-06 10:22 37.10621 126.09319 15508 ft 376 kts 282°
2026-05-06 10:22 37.11467 126.06201 16053 ft 381 kts 291°
2026-05-06 10:23 37.12530 126.03147 16611 ft 383 kts 292°
2026-05-06 10:23 37.13598 126.00084 17167 ft 385 kts 292°
2026-05-06 10:23 37.14673 125.96993 17719 ft 388 kts 292°
2026-05-06 10:23 37.15749 125.93881 18256 ft 391 kts 292°
2026-05-06 10:24 37.16828 125.90740 18730 ft 393 kts 291°
2026-05-06 10:24 37.17905 125.87587 19190 ft 395 kts 291°
2026-05-06 10:24 37.18988 125.84410 19645 ft 397 kts 291°
2026-05-06 10:24 37.20080 125.81213 20090 ft 399 kts 291°
2026-05-06 10:25 37.21173 125.78006 20526 ft 402 kts 291°
2026-05-06 10:25 37.22276 125.74770 20954 ft 404 kts 291°
2026-05-06 10:25 37.23382 125.71527 21377 ft 406 kts 292°
2026-05-06 10:25 37.24498 125.68256 21783 ft 408 kts 292°
2026-05-06 10:26 37.25618 125.64972 22191 ft 411 kts 292°
2026-05-06 10:26 37.26744 125.61668 22593 ft 413 kts 292°
2026-05-06 10:26 37.27873 125.58349 22983 ft 415 kts 292°
2026-05-06 10:26 37.29010 125.55007 23368 ft 417 kts 292°
2026-05-06 10:27 37.30152 125.51645 23714 ft 419 kts 291°
2026-05-06 10:27 37.31298 125.48264 24047 ft 421 kts 291°
2026-05-06 10:27 37.32446 125.44871 24382 ft 423 kts 291°
2026-05-06 10:27 37.33597 125.41466 24702 ft 425 kts 291°
2026-05-06 10:28 37.34750 125.38039 25029 ft 426 kts 291°
2026-05-06 10:28 37.35907 125.34597 25354 ft 428 kts 291°
2026-05-06 10:28 37.37068 125.31143 25666 ft 430 kts 291°
2026-05-06 10:28 37.38238 125.27677 25926 ft 432 kts 291°
2026-05-06 10:29 37.39188 125.24107 25988 ft 430 kts 282°
2026-05-06 10:29 37.39614 125.20397 25990 ft 429 kts 272°
2026-05-06 10:29 37.39586 125.16640 25992 ft 430 kts 269°
2026-05-06 10:29 37.39509 125.12884 25985 ft 430 kts 269°
2026-05-06 10:30 37.39442 125.09127 25984 ft 430 kts 269°
2026-05-06 10:30 37.39377 125.05370 25980 ft 430 kts 269°
2026-05-06 10:30 37.39313 125.01611 25983 ft 430 kts 269°
2026-05-06 10:30 37.39249 124.97843 25980 ft 431 kts 269°
2026-05-06 10:31 37.39179 124.94082 25979 ft 431 kts 269°
2026-05-06 10:31 37.39104 124.90314 25979 ft 431 kts 269°
2026-05-06 10:31 37.39030 124.86548 25979 ft 431 kts 269°
2026-05-06 10:31 37.38959 124.82784 25971 ft 431 kts 269°
2026-05-06 10:32 37.38887 124.79020 25974 ft 431 kts 269°
2026-05-06 10:32 37.38812 124.75246 25972 ft 431 kts 269°
2026-05-06 10:32 37.38732 124.71480 25973 ft 431 kts 269°
2026-05-06 10:32 37.38647 124.67701 25969 ft 431 kts 269°
2026-05-06 10:33 37.38562 124.63936 25970 ft 431 kts 269°
2026-05-06 10:33 37.38477 124.60165 25962 ft 432 kts 269°
2026-05-06 10:33 37.38391 124.56393 25970 ft 432 kts 269°
2026-05-06 10:33 37.38303 124.52602 26232 ft 435 kts 269°
2026-05-06 10:34 37.38215 124.48797 26539 ft 436 kts 269°
2026-05-06 10:34 37.37978 124.44994 26828 ft 438 kts 261°
2026-05-06 10:34 37.37240 124.41268 27120 ft 442 kts 252°
2026-05-06 10:34 37.35990 124.37718 27398 ft 446 kts 242°
2026-05-06 10:35 37.34352 124.34397 27681 ft 449 kts 239°
2026-05-06 10:35 37.32677 124.31081 27965 ft 451 kts 239°
2026-05-06 10:35 37.30997 124.27748 28330 ft 451 kts 240°
2026-05-06 10:35 37.29326 124.24417 28715 ft 450 kts 240°
2026-05-06 10:36 37.27664 124.21095 29101 ft 450 kts 240°
2026-05-06 10:36 37.25999 124.17771 29490 ft 449 kts 240°
2026-05-06 10:36 37.24335 124.14460 29880 ft 449 kts 240°
2026-05-06 10:36 37.22660 124.11161 30209 ft 449 kts 239°
2026-05-06 10:37 37.20949 124.07887 30538 ft 448 kts 239°
2026-05-06 10:37 37.19214 124.04645 30863 ft 447 kts 238°
2026-05-06 10:37 37.17464 124.01418 31189 ft 447 kts 238°
2026-05-06 10:37 37.15715 123.98194 31499 ft 446 kts 239°
2026-05-06 10:38 37.14004 123.94964 31812 ft 445 kts 239°
2026-05-06 10:38 37.12318 123.91704 32013 ft 445 kts 240°
2026-05-06 10:38 37.09014 123.85206 32053 ft 440 kts 240°
2026-05-06 10:39 37.05712 123.78747 32052 ft 440 kts 240°
2026-05-06 10:39 37.02379 123.72313 32052 ft 441 kts 240°
2026-05-06 10:40 36.99081 123.65987 32487 ft 413 kts 240°
2026-05-06 10:40 36.97528 123.63039 33464 ft 397 kts 241°
2026-05-06 10:40 36.96030 123.60216 34349 ft 381 kts 241°
2026-05-06 10:41 36.94587 123.57517 35142 ft 365 kts 242°
2026-05-06 10:41 36.93197 123.54944 35896 ft 349 kts 242°
2026-05-06 10:41 36.91860 123.52495 36596 ft 333 kts 242°
2026-05-06 10:41 36.90577 123.50176 37241 ft 317 kts 243°
2026-05-06 10:42 36.89341 123.47973 37758 ft 304 kts 243°
2026-05-06 10:42 36.88126 123.45821 37752 ft 305 kts 243°
2026-05-06 10:42 36.86883 123.43600 37281 ft 320 kts 243°
2026-05-06 10:42 36.85593 123.41270 36963 ft 329 kts 243°
2026-05-06 10:43 36.84304 123.38939 37186 ft 322 kts 243°
2026-05-06 10:43 36.83046 123.36686 37654 ft 310 kts 243°
2026-05-06 10:43 36.81816 123.34501 37804 ft 308 kts 243°
2026-05-06 10:44 36.79276 123.29950 37163 ft 327 kts 243°
2026-05-06 10:44 36.76713 123.25337 37612 ft 315 kts 243°
2026-05-06 10:44 36.75483 123.23146 37822 ft 311 kts 243°
2026-05-06 10:45 36.74236 123.20925 37642 ft 317 kts 243°
2026-05-06 10:45 36.72944 123.18605 37347 ft 326 kts 243°
2026-05-06 10:45 36.71667 123.16304 37329 ft 327 kts 243°
2026-05-06 10:45 36.70369 123.13971 37607 ft 319 kts 243°
2026-05-06 10:46 36.69126 123.11754 37827 ft 314 kts 243°
2026-05-06 10:46 36.66596 123.07234 37513 ft 325 kts 243°
2026-05-06 10:47 36.64013 123.02590 37627 ft 322 kts 243°
2026-05-06 10:47 36.62766 123.00281 37505 ft 325 kts 249°
2026-05-06 10:47 36.62057 122.97594 36766 ft 334 kts 269°
2026-05-06 10:47 36.62212 122.94705 36522 ft 334 kts 284°
2026-05-06 10:48 36.63064 122.92066 36361 ft 328 kts 295°
2026-05-06 10:48 36.64177 122.89540 35355 ft 342 kts 295°
2026-05-06 10:48 36.65362 122.86872 34087 ft 363 kts 295°
2026-05-06 10:48 36.66641 122.84003 32867 ft 382 kts 295°
2026-05-06 10:49 36.67939 122.81108 32364 ft 393 kts 295°
2026-05-06 10:49 36.69286 122.78103 32137 ft 400 kts 295°
2026-05-06 10:49 36.70648 122.75059 31998 ft 403 kts 295°
2026-05-06 10:50 36.73375 122.68942 32040 ft 405 kts 294°
2026-05-06 10:50 36.76098 122.62802 32038 ft 404 kts 294°
2026-05-06 10:51 36.78817 122.56660 32035 ft 404 kts 294°
2026-05-06 10:51 36.81519 122.50531 32033 ft 403 kts 294°
2026-05-06 10:52 36.84226 122.44394 32033 ft 403 kts 294°
2026-05-06 10:52 36.86930 122.38260 32036 ft 403 kts 294°
2026-05-06 10:53 36.89192 122.33123 32038 ft 403 kts 294°
2026-05-06 10:53 36.92314 122.25997 32039 ft 402 kts 294°
2026-05-06 10:54 36.94556 122.20863 32039 ft 402 kts 294°
2026-05-06 10:54 36.97235 122.14736 32039 ft 401 kts 294°
2026-05-06 10:55 36.99913 122.08609 32034 ft 401 kts 294°
2026-05-06 10:55 37.02586 122.02485 32028 ft 401 kts 294°
2026-05-06 10:56 37.05251 121.96354 32029 ft 401 kts 294°
2026-05-06 10:56 37.07908 121.90217 32023 ft 401 kts 294°
2026-05-06 10:57 37.10562 121.84076 32020 ft 401 kts 294°
2026-05-06 10:57 37.13217 121.77929 32022 ft 401 kts 294°
2026-05-06 10:58 37.15864 121.71788 32016 ft 401 kts 294°
2026-05-06 10:58 37.18517 121.65646 32013 ft 400 kts 294°
2026-05-06 10:59 37.21156 121.59501 32010 ft 400 kts 294°
2026-05-06 10:59 37.23791 121.53347 32004 ft 400 kts 294°
2026-05-06 11:00 37.26425 121.47197 31996 ft 400 kts 294°
2026-05-06 11:00 37.29061 121.41042 31991 ft 400 kts 294°
2026-05-06 11:01 37.31690 121.34893 31983 ft 400 kts 294°
2026-05-06 11:01 37.34313 121.28728 31979 ft 400 kts 294°
2026-05-06 11:02 37.36933 121.22551 31969 ft 401 kts 294°
2026-05-06 11:02 37.39555 121.16364 31963 ft 401 kts 294°
2026-05-06 11:03 37.42170 121.10179 31957 ft 401 kts 294°
2026-05-06 11:03 37.44790 121.03971 31949 ft 401 kts 294°
2026-05-06 11:04 37.47404 120.97772 31950 ft 401 kts 294°
2026-05-06 11:04 37.48715 120.94660 32312 ft 406 kts 300°
2026-05-06 11:04 37.50058 120.91475 32112 ft 416 kts 300°
2026-05-06 11:04 37.51420 120.88237 31950 ft 420 kts 300°
2026-05-06 11:05 37.52790 120.84973 31933 ft 422 kts 300°
2026-05-06 11:05 37.55528 120.78424 31922 ft 422 kts 299°
2026-05-06 11:06 37.58262 120.71874 31928 ft 422 kts 299°
2026-05-06 11:06 37.60994 120.65340 31917 ft 421 kts 299°
2026-05-06 11:07 37.63690 120.58772 31918 ft 422 kts 295°
2026-05-06 11:07 37.65094 120.51578 31914 ft 427 kts 276°
2026-05-06 11:08 37.64769 120.44055 31918 ft 431 kts 268°
2026-05-06 11:08 37.64246 120.36526 31918 ft 430 kts 268°
2026-05-06 11:09 37.63723 120.29018 31921 ft 430 kts 268°
2026-05-06 11:09 37.63191 120.21514 31916 ft 430 kts 268°
2026-05-06 11:10 37.62652 120.14008 31918 ft 429 kts 268°
2026-05-06 11:10 37.62107 120.06514 31917 ft 429 kts 268°
2026-05-06 11:11 37.61560 119.99026 31922 ft 428 kts 269°
2026-05-06 11:11 37.61015 119.91550 31916 ft 428 kts 268°
2026-05-06 11:12 37.60459 119.84063 31921 ft 428 kts 268°
2026-05-06 11:12 37.59895 119.76597 31913 ft 428 kts 268°
2026-05-06 11:13 37.59324 119.69125 31930 ft 428 kts 268°
2026-05-06 11:13 37.58774 119.61658 31935 ft 428 kts 269°
2026-05-06 11:14 37.58284 119.54184 31932 ft 427 kts 269°
2026-05-06 11:14 37.57802 119.46723 31932 ft 427 kts 269°
2026-05-06 11:15 37.57283 119.39267 31938 ft 427 kts 269°
2026-05-06 11:15 37.56744 119.31815 31935 ft 427 kts 269°
2026-05-06 11:16 37.56207 119.24371 31940 ft 427 kts 269°
2026-05-06 11:16 37.55674 119.16928 31941 ft 426 kts 269°
2026-05-06 11:17 37.55126 119.09485 31949 ft 426 kts 269°
2026-05-06 11:17 37.54579 119.02046 31950 ft 426 kts 269°
2026-05-06 11:18 37.54040 118.94622 31955 ft 425 kts 269°
2026-05-06 11:18 37.53488 118.87207 31954 ft 425 kts 268°
2026-05-06 11:19 37.52922 118.79803 31958 ft 424 kts 268°
2026-05-06 11:19 37.52190 118.72437 31957 ft 425 kts 265°
2026-05-06 11:20 37.51228 118.65096 31961 ft 424 kts 264°
2026-05-06 11:20 37.50247 118.57787 31955 ft 423 kts 264°
2026-05-06 11:21 37.49314 118.50474 31955 ft 422 kts 265°
2026-05-06 11:21 37.48398 118.43179 31957 ft 422 kts 265°
2026-05-06 11:22 37.47479 118.35887 31960 ft 421 kts 265°
2026-05-06 11:22 37.46556 118.28615 31960 ft 420 kts 264°
2026-05-06 11:23 37.45629 118.21354 31967 ft 420 kts 264°
2026-05-06 11:23 37.44714 118.14104 31964 ft 419 kts 264°
2026-05-06 11:24 37.43812 118.06867 31804 ft 417 kts 260°
2026-05-06 11:24 37.43381 118.03411 32638 ft 388 kts 262°
2026-05-06 11:24 37.42971 118.00112 33533 ft 375 kts 262°
2026-05-06 11:24 37.42578 117.96931 34319 ft 361 kts 262°
2026-05-06 11:25 37.42200 117.93868 35054 ft 347 kts 262°
2026-05-06 11:25 37.41839 117.90924 35775 ft 333 kts 261°
2026-05-06 11:25 37.41496 117.88102 36463 ft 319 kts 261°
2026-05-06 11:25 37.41170 117.85409 37120 ft 304 kts 261°
2026-05-06 11:26 37.40862 117.82840 37730 ft 290 kts 261°
2026-05-06 11:26 37.40572 117.80397 38285 ft 276 kts 261°
2026-05-06 11:26 37.40294 117.78044 38508 ft 271 kts 261°
2026-05-06 11:26 37.40016 117.75658 38194 ft 281 kts 262°
2026-05-06 11:27 37.39728 117.73175 37799 ft 293 kts 262°
2026-05-06 11:27 37.39436 117.70629 37784 ft 293 kts 262°
2026-05-06 11:27 37.39152 117.68136 38187 ft 282 kts 262°
2026-05-06 11:27 37.38882 117.65735 38532 ft 274 kts 262°
2026-05-06 11:28 37.38617 117.63354 38463 ft 278 kts 262°
2026-05-06 11:28 37.38346 117.60906 38109 ft 288 kts 262°
2026-05-06 11:28 37.38070 117.58386 37937 ft 293 kts 262°
2026-05-06 11:28 37.37796 117.55866 38159 ft 287 kts 262°
2026-05-06 11:29 37.37534 117.53425 38518 ft 278 kts 262°
2026-05-06 11:29 37.37280 117.51027 38584 ft 277 kts 262°
2026-05-06 11:29 37.37024 117.48600 38357 ft 284 kts 262°
2026-05-06 11:29 37.36763 117.46098 38131 ft 291 kts 262°
2026-05-06 11:30 37.36502 117.43580 38208 ft 289 kts 262°
2026-05-06 11:30 37.36249 117.41106 38488 ft 282 kts 262°
2026-05-06 11:30 37.36004 117.38684 38635 ft 278 kts 262°
2026-05-06 11:30 37.35761 117.36258 38528 ft 283 kts 262°
2026-05-06 11:31 37.35514 117.33772 38328 ft 289 kts 262°
2026-05-06 11:31 37.35267 117.31259 38301 ft 290 kts 262°
2026-05-06 11:31 37.35024 117.28768 38501 ft 285 kts 262°
2026-05-06 11:31 37.34789 117.26320 38647 ft 281 kts 262°
2026-05-06 11:32 37.34557 117.23880 38615 ft 283 kts 262°
2026-05-06 11:32 37.34399 117.22214 38519 ft 286 kts 262°
2026-05-06 11:32 37.34089 117.18895 38414 ft 290 kts 262°
2026-05-06 11:32 37.33932 117.17201 38477 ft 288 kts 262°
2026-05-06 11:33 37.33633 117.13928 38663 ft 283 kts 262°
2026-05-06 11:33 37.33412 117.11470 38661 ft 284 kts 262°
2026-05-06 11:33 37.33262 117.09800 38600 ft 286 kts 262°
2026-05-06 11:33 37.33041 117.07297 38520 ft 289 kts 262°
2026-05-06 11:34 37.32821 117.04788 38563 ft 288 kts 262°
2026-05-06 11:34 37.32606 117.02302 38668 ft 285 kts 262°
2026-05-06 11:34 37.32395 116.99828 38713 ft 285 kts 263°
2026-05-06 11:34 37.32185 116.97347 38656 ft 287 kts 262°
2026-05-06 11:35 37.31976 116.94840 38603 ft 289 kts 263°
2026-05-06 11:35 37.31768 116.92326 38637 ft 289 kts 263°
2026-05-06 11:35 37.31565 116.89832 38715 ft 286 kts 263°
2026-05-06 11:35 37.31365 116.87345 38751 ft 286 kts 263°
2026-05-06 11:36 37.31167 116.84854 38711 ft 288 kts 263°
2026-05-06 11:36 37.30969 116.82347 38671 ft 289 kts 263°
2026-05-06 11:36 37.30774 116.79833 38696 ft 289 kts 263°
2026-05-06 11:36 37.30578 116.77324 38703 ft 290 kts 261°
2026-05-06 11:37 37.30181 116.74772 38159 ft 306 kts 254°
2026-05-06 11:37 37.29408 116.72211 37676 ft 322 kts 247°
2026-05-06 11:37 37.29283 116.71888 37602 ft 323 kts 246°
2026-05-06 11:40 37.28984 116.71133 37235 ft 325 kts 244°
2026-05-06 11:40 37.27787 116.68593 35798 ft 350 kts 240°
2026-05-06 11:40 37.26356 116.66022 34743 ft 367 kts 238°
2026-05-06 11:41 37.24827 116.63436 34264 ft 371 kts 238°
2026-05-06 11:41 37.23278 116.60811 34073 ft 378 kts 238°
2026-05-06 11:41 37.21730 116.58121 33936 ft 381 kts 239°
2026-05-06 11:42 37.19712 116.54494 33964 ft 383 kts 240°
2026-05-06 11:43 37.19354 116.53840 33953 ft 383 kts 240°
2026-05-06 11:43 37.16470 116.48371 33985 ft 375 kts 243°
2026-05-06 11:44 37.12651 116.39757 33955 ft 378 kts 245°
2026-05-06 11:44 37.10133 116.33947 33967 ft 380 kts 245°
2026-05-06 11:45 37.07549 116.28166 33973 ft 381 kts 244°
2026-05-06 11:45 37.04940 116.22392 33972 ft 381 kts 244°
2026-05-06 11:46 37.02332 116.16610 33978 ft 381 kts 244°
2026-05-06 11:46 36.99727 116.10839 33977 ft 381 kts 244°
2026-05-06 11:47 36.97118 116.05054 33977 ft 381 kts 244°
2026-05-06 11:47 36.94509 115.99289 33982 ft 381 kts 244°
2026-05-06 11:48 36.91895 115.93523 33982 ft 381 kts 244°
2026-05-06 11:48 36.89276 115.87756 33983 ft 381 kts 244°
2026-05-06 11:49 36.86658 115.82001 33983 ft 381 kts 244°
2026-05-06 11:49 36.84034 115.76235 33989 ft 382 kts 244°
2026-05-06 11:50 36.81408 115.70482 33988 ft 382 kts 244°
2026-05-06 11:50 36.78778 115.64726 33991 ft 381 kts 244°
2026-05-06 11:51 36.76142 115.58981 33989 ft 381 kts 244°
2026-05-06 11:51 36.73508 115.53243 33992 ft 381 kts 244°
2026-05-06 11:52 36.70871 115.47501 33993 ft 382 kts 244°
2026-05-06 11:52 36.68224 115.41760 33990 ft 382 kts 244°
2026-05-06 11:53 36.65590 115.36057 33991 ft 382 kts 244°
2026-05-06 11:53 36.62923 115.30282 33986 ft 383 kts 244°
2026-05-06 11:54 36.60284 115.24572 33989 ft 383 kts 244°
2026-05-06 11:54 36.57622 115.18835 33989 ft 383 kts 244°
2026-05-06 11:55 36.54640 115.13313 33987 ft 391 kts 232°
2026-05-06 11:55 36.50690 115.08613 33984 ft 393 kts 230°
2026-05-06 11:56 36.46726 115.03934 33979 ft 393 kts 229°
2026-05-06 11:56 36.42759 114.99248 33983 ft 394 kts 229°
2026-05-06 11:57 36.38787 114.94563 33979 ft 394 kts 229°
2026-05-06 11:57 36.35274 114.89457 33975 ft 385 kts 243°
2026-05-06 11:58 36.32580 114.83709 33976 ft 386 kts 243°
2026-05-06 11:58 36.29868 114.77961 33976 ft 386 kts 243°
2026-05-06 11:59 36.27143 114.72214 33981 ft 387 kts 243°
2026-05-06 11:59 36.24353 114.66498 33987 ft 388 kts 242°
2026-05-06 12:00 36.21540 114.60798 33992 ft 388 kts 242°
2026-05-06 12:00 36.18732 114.55084 33997 ft 389 kts 242°
2026-05-06 12:01 36.15922 114.49366 34004 ft 389 kts 242°
2026-05-06 12:01 36.13109 114.43640 34010 ft 390 kts 242°
2026-05-06 12:02 36.10288 114.37915 34026 ft 390 kts 242°
2026-05-06 12:02 36.07459 114.32180 34025 ft 390 kts 242°
2026-05-06 12:03 36.04634 114.26463 34033 ft 390 kts 242°
2026-05-06 12:03 36.01801 114.20745 34027 ft 390 kts 242°
2026-05-06 12:04 35.98962 114.15032 34031 ft 390 kts 242°
2026-05-06 12:04 35.96126 114.09320 34031 ft 390 kts 242°
2026-05-06 12:05 35.93284 114.03597 34041 ft 391 kts 241°
2026-05-06 12:05 35.90434 113.97876 34038 ft 392 kts 241°
2026-05-06 12:06 35.87571 113.92150 34035 ft 392 kts 241°
2026-05-06 12:06 35.84706 113.86422 34038 ft 393 kts 241°
2026-05-06 12:07 35.81830 113.80674 34036 ft 394 kts 241°
2026-05-06 12:07 35.78967 113.74970 34034 ft 394 kts 240°
2026-05-06 12:08 35.76084 113.69237 34026 ft 394 kts 241°
2026-05-06 12:08 35.73198 113.63507 34031 ft 394 kts 241°
2026-05-06 12:09 35.70295 113.57749 34016 ft 393 kts 240°
2026-05-06 12:09 35.67418 113.52058 34026 ft 395 kts 241°
2026-05-06 12:10 35.64512 113.46321 34024 ft 396 kts 241°
2026-05-06 12:10 35.61599 113.40578 34024 ft 396 kts 241°
2026-05-06 12:11 35.58710 113.34796 34024 ft 397 kts 242°
2026-05-06 12:11 35.55866 113.28976 34020 ft 397 kts 242°
2026-05-06 12:12 35.53018 113.23159 34020 ft 398 kts 242°
2026-05-06 12:12 35.50627 113.18316 34016 ft 398 kts 242°
2026-05-06 12:13 35.47744 113.12498 34022 ft 399 kts 241°
2026-05-06 12:13 35.44857 113.06676 34017 ft 400 kts 241°
2026-05-06 12:14 35.41964 113.00845 34023 ft 400 kts 241°
2026-05-06 12:14 35.39067 112.95020 34016 ft 400 kts 241°
2026-05-06 12:15 35.36165 112.89197 34015 ft 400 kts 241°
2026-05-06 12:15 35.33259 112.83376 34016 ft 400 kts 241°
2026-05-06 12:16 35.30347 112.77556 34010 ft 401 kts 241°
2026-05-06 12:16 35.27424 112.71742 34009 ft 401 kts 241°
2026-05-06 12:17 35.24498 112.65917 34009 ft 402 kts 241°
2026-05-06 12:17 35.21574 112.60093 34005 ft 402 kts 241°
2026-05-06 12:18 35.18657 112.54260 34003 ft 402 kts 241°
2026-05-06 12:18 35.15765 112.48417 34001 ft 402 kts 242°
2026-05-06 12:19 35.12867 112.42569 34000 ft 403 kts 242°
2026-05-06 12:19 35.09955 112.36715 33999 ft 403 kts 241°
2026-05-06 12:20 35.07038 112.30858 33998 ft 404 kts 241°
2026-05-06 12:20 35.04121 112.25003 33996 ft 404 kts 241°
2026-05-06 12:21 35.01195 112.19147 33998 ft 405 kts 241°
2026-05-06 12:21 34.98260 112.13289 34001 ft 405 kts 241°
2026-05-06 12:22 34.95319 112.07420 34000 ft 405 kts 241°
2026-05-06 12:22 34.92380 112.01554 34010 ft 406 kts 241°
2026-05-06 12:23 34.89428 111.95681 34009 ft 406 kts 241°
2026-05-06 12:23 34.86471 111.89815 34020 ft 407 kts 241°
2026-05-06 12:24 34.83533 111.83922 34030 ft 407 kts 242°
2026-05-06 12:24 34.80613 111.78023 34036 ft 407 kts 242°
2026-05-06 12:25 34.77684 111.72122 34047 ft 407 kts 241°
2026-05-06 12:25 34.74738 111.66235 34057 ft 408 kts 241°
2026-05-06 12:26 34.71781 111.60344 34057 ft 408 kts 241°
2026-05-06 12:26 34.68822 111.54444 34066 ft 409 kts 241°
2026-05-06 12:27 34.65867 111.48552 34072 ft 409 kts 241°
2026-05-06 12:27 34.62903 111.42649 34082 ft 410 kts 241°
2026-05-06 12:28 34.59931 111.36746 34084 ft 410 kts 241°
2026-05-06 12:28 34.56952 111.30841 34094 ft 410 kts 241°
2026-05-06 12:29 34.53971 111.24936 34096 ft 410 kts 242°
2026-05-06 12:29 34.50988 111.19040 34101 ft 410 kts 241°
2026-05-06 12:30 34.47993 111.13144 34104 ft 411 kts 241°
2026-05-06 12:30 34.44998 111.07254 34104 ft 411 kts 241°
2026-05-06 12:31 34.42004 111.01365 34102 ft 410 kts 242°
2026-05-06 12:31 34.39051 110.95463 34103 ft 410 kts 242°
2026-05-06 12:32 34.36102 110.89548 34103 ft 410 kts 242°
2026-05-06 12:32 34.33149 110.83629 34102 ft 411 kts 242°
2026-05-06 12:33 34.30186 110.77712 34107 ft 411 kts 242°
2026-05-06 12:33 34.27213 110.71800 34102 ft 412 kts 242°
2026-05-06 12:34 34.24233 110.65893 34105 ft 412 kts 242°